Home > Weather > Quito > Past weeks

Flag for Ecuador Past Weather in Quito, Ecuador — Yesterday and Last 2 Weeks

Now
61 °F

Broken clouds.


Feels Like: 61 °F
Forecast: 47 / 75 °F
Wind: 16 mph from South

Location: Latacunga Airport

Current Time: Aug 26, 2016 at 3:10:59 PM

Latest Report: Aug 26, 2016 at 2:00 PM


Visibility: N/A

Pressure: 30.39 "Hg (21.76 "Hg at 2826m altitude)

Humidity: 63%

Dew Point: 48 °F

Location of QuitoLocation

Past Weather in Quito — Graph

°F

Quito Temperature Yesterday

Maximum temperature yesterday: 70 °F (at 1:00 PM)
Minimum temperature yesterday: 32 °F (at 5:00 AM)
Average temperature yesterday: 53 °F

High & Low Weather Summary for the Past Weeks

 TemperatureHumidityPressure
High70 °F (Aug 24, 1:00 PM)100% (Aug 11, 8:00 PM)30.51 "Hg (Aug 11, 8:00 PM)
Low32 °F (Aug 25, 5:00 AM)23% (Aug 24, 1:00 PM)30.33 "Hg (Aug 11, 4:00 PM)
Average54 °F82%30.43 "Hg
* Reported Aug 11 2:00 PM — Aug 26 2:00 PM, Quito, Weather by CustomWeather, © 2016

Note: Actual official high and low records may vary slightly from our data, if they occured in-between our weather recording intervals... More about our weather records

Advertising

Quito Weather History for the Previous 24 Hours

Scroll right to see more
 ConditionsComfort  
Time TempWeatherWind HumidityBarometerVisibility
2:00 PM
Fri, Aug 26
61 °FBroken clouds.16 mph63%30.39 "HgN/A
1:00 PM57 °FCool.17 mph82%30.42 "HgN/A
12:00 PM63 °FPartly sunny.18 mph59%30.45 "HgN/A
11:00 AM59 °FPartly sunny.13 mph72%30.45 "HgN/A
10:00 AM55 °FPartly sunny.14 mph88%30.48 "HgN/A
9:00 AM54 °FCool.7 mph100%30.48 "HgN/A
8:00 AM50 °FBroken clouds.6 mph100%30.48 "HgN/A
7:00 AM46 °FBroken clouds.1 mph100%30.45 "Hg4 mi
6:00 AM46 °FPassing clouds.1 mph100%30.45 "HgN/A
5:00 AM46 °FLight rain. Overcast.1 mph100%30.45 "HgN/A
4:00 AM48 °FLight rain. Overcast.1 mph100%30.42 "HgN/A
3:00 AM46 °FPassing clouds.2 mph100%30.42 "HgN/A
2:00 AM48 °FPassing clouds.2 mph100%30.42 "HgN/A
1:00 AM46 °FPassing clouds.6 mph100%30.45 "HgN/A
12:00 AM46 °FPassing clouds.1 mph100%30.45 "HgN/A
11:00 PM
Thu, Aug 25
48 °FPassing clouds.3 mph100%30.45 "HgN/A
10:00 PM50 °FPassing clouds.9 mph100%30.45 "HgN/A
9:00 PM52 °FPassing clouds.10 mph88%30.42 "HgN/A
8:00 PM52 °FPassing clouds.8 mph77%30.39 "HgN/A
7:00 PM57 °FPassing clouds.10 mph55%30.36 "HgN/A
6:00 PM59 °FScattered clouds.21 mph51%30.36 "HgN/A
5:00 PM63 °FScattered clouds.21 mph45%30.33 "HgN/A
4:00 PM66 °FScattered clouds.20 mph37%30.33 "HgN/A
3:00 PM68 °FScattered clouds.17 mph35%30.33 "HgN/A
Weather by CustomWeather, © 2016

See weather overviewHow to use our weather pages